Knox, IN

4:26 AM CDT on April 24, 2018 (GMT -0500)
Starke County

Weather History for KOXI - March, 2013

Change the Weather History Date:

Saturday, March 30, 2013

  Actual Average (KRCR) Record (KRCR)
Temperature  
Mean Temperature 40 °F -  
Max Temperature 61 °F 53 °F 60 °F (2015)
Min Temperature 23 °F 34 °F 26 °F (2014)
Degree Days  
Heating Degree Days 25    
Moisture  
Dew Point 28 °F    
Average Humidity 60    
Maximum Humidity 91    
Minimum Humidity 35    
Precipitation  
Precipitation 0.00 in - - ()
Sea Level Pressure  
Sea Level Pressure 30.08 in    
Wind  
Wind Speed 4 mph (SSW)    
Max Wind Speed 16 mph    
Max Gust Speed 20 mph    
Visibility 10 miles    
Events      
Averages and records for this station are not official NWS values.
T = Trace of Precipitation, MM = Missing Value Source: NWS Daily Summary

Daily Weather History Graph

Daily Weather History Graph

Search for Another Location

Airport or City:

Astronomy

Mar. 30, 2013 Rise Set
Actual Time 6:32 AM CDT 7:09 PM CDT
Civil Twilight 6:04 AM CDT 7:37 PM CDT
Nautical Twilight 5:32 AM CDT 8:10 PM CDT
Astronomical Twilight 4:58 AM CDT 8:44 PM CDT
Moon 11:18 PM CDT (3/30) 8:25 AM CDT (3/30)
Length of Visible Light 13h 32m
Length of Day
12h 37m
Waning Gibbous, 86% of the Moon is Illuminated
Mar 30
Waning Gibbous
Apr 2
Last Quarter
Apr 10
New
Apr 18
First Quarter
Apr 25
Full

Hourly Weather History & Observations

Time (CDT) Temp. Windchill Dew Point Humidity Pressure Visibility Wind Dir Wind Speed Gust Speed Precip Events Conditions
12:15 AM 30.9 °F - 22.6 °F 71% 30.23 in 10.0 mi Calm Calm - N/A   Clear
12:35 AM 30.2 °F - 22.5 °F 73% 30.23 in 10.0 mi Calm Calm - N/A   Clear
12:55 AM 28.9 °F - 22.5 °F 77% 30.23 in 10.0 mi Calm Calm - N/A   Clear
1:15 AM 27.7 °F - 23.0 °F 83% 30.23 in 10.0 mi Calm Calm - N/A   Clear
1:35 AM 28.0 °F - 23.2 °F 82% 30.23 in 10.0 mi Calm Calm - N/A   Clear
2:15 AM 25.3 °F 21.1 °F 21.9 °F 87% 30.23 in 10.0 mi North 3.5 mph - N/A   Clear
2:35 AM 24.8 °F - 22.1 °F 89% 30.23 in 10.0 mi Calm Calm - N/A   Clear
2:55 AM 24.6 °F - 22.5 °F 91% 30.23 in 10.0 mi Calm Calm - N/A   Clear
3:15 AM 25.3 °F - 22.5 °F 89% 30.22 in 10.0 mi Calm Calm - N/A   Clear
3:35 AM 25.3 °F - 22.1 °F 87% 30.21 in 10.0 mi Calm Calm - N/A   Clear
4:15 AM 25.0 °F - 21.6 °F 87% 30.20 in 10.0 mi Calm Calm - N/A   Clear
4:35 AM 24.8 °F 20.5 °F 21.9 °F 89% 30.20 in 10.0 mi ESE 3.5 mph - N/A   Clear
4:55 AM 24.4 °F - 21.0 °F 87% 30.20 in 10.0 mi Calm Calm - N/A   Clear
5:15 AM 23.9 °F - 20.8 °F 88% 30.21 in 10.0 mi Calm Calm - N/A   Clear
5:35 AM 23.9 °F - 21.2 °F 89% 30.21 in 10.0 mi Calm Calm - N/A   Clear
5:55 AM 23.9 °F - 21.4 °F 90% 30.21 in 10.0 mi Calm Calm - N/A   Clear
6:15 AM 23.9 °F - 21.0 °F 89% 30.21 in 10.0 mi Calm Calm - N/A   Clear
6:35 AM 23.7 °F - 20.8 °F 89% 30.21 in 10.0 mi Calm Calm - N/A   Clear
6:55 AM 23.0 °F - 20.1 °F 89% 30.20 in 10.0 mi Calm Calm - N/A   Clear
7:15 AM 23.2 °F - 20.3 °F 89% 30.20 in 10.0 mi Calm Calm - N/A   Clear
7:35 AM 25.7 °F 21.5 °F 22.1 °F 86% 30.19 in 10.0 mi ESE 3.5 mph - N/A   Clear
7:55 AM 28.4 °F - 24.6 °F 86% 30.19 in 10.0 mi Calm Calm - N/A   Clear
8:15 AM 32.0 °F - 26.4 °F 80% 30.19 in 10.0 mi Calm Calm - N/A   Clear
8:35 AM 35.6 °F 30.7 °F 26.1 °F 68% 30.19 in 10.0 mi SE 5.8 mph - N/A   Clear
8:55 AM 39.0 °F 34.0 °F 23.9 °F 55% 30.18 in 10.0 mi SSE 6.9 mph - N/A   Clear
9:15 AM 41.5 °F 36.4 °F 23.2 °F 48% 30.18 in 10.0 mi South 8.1 mph - N/A   Clear
9:35 AM 43.7 °F 39.7 °F 22.8 °F 44% 30.18 in 10.0 mi South 6.9 mph - N/A   Clear
9:55 AM 45.9 °F 41.2 °F 22.6 °F 40% 30.17 in 10.0 mi South 9.2 mph - N/A   Clear
10:15 AM 48.2 °F - 24.4 °F 39% 30.16 in 10.0 mi SSW 9.2 mph - N/A   Clear
10:35 AM 49.6 °F - 27.9 °F 43% 30.15 in 10.0 mi South 9.2 mph - N/A   Clear
10:55 AM 50.4 °F - 29.5 °F 45% 30.14 in 10.0 mi South 8.1 mph - N/A   Clear
11:15 AM 51.6 °F - 30.6 °F 45% 30.13 in 10.0 mi SSW 10.4 mph - N/A   Clear
11:35 AM 52.5 °F - 30.7 °F 43% 30.12 in 10.0 mi South 12.7 mph 17.3 mph N/A   Clear
11:55 AM 53.6 °F - 30.4 °F 41% 30.11 in 10.0 mi SSW 12.7 mph 17.3 mph N/A   Clear
12:15 PM 54.1 °F - 30.2 °F 40% 30.11 in 10.0 mi SW 11.5 mph 17.3 mph N/A   Clear
12:35 PM 54.7 °F - 30.0 °F 39% 30.10 in 10.0 mi SSW 12.7 mph 19.6 mph N/A   Clear
1:15 PM 55.6 °F - 30.2 °F 38% 30.08 in 10.0 mi WSW 13.8 mph 18.4 mph N/A   Clear
1:35 PM 55.4 °F - 30.0 °F 38% 30.07 in 10.0 mi SSW 9.2 mph 16.1 mph N/A   Clear
1:55 PM 55.8 °F - 30.4 °F 38% 30.05 in 10.0 mi SW 12.7 mph 16.1 mph N/A   Clear
2:15 PM 55.9 °F - 29.8 °F 37% 30.04 in 10.0 mi SW 10.4 mph - N/A   Clear
2:35 PM 56.5 °F - 30.0 °F 36% 30.03 in 10.0 mi SW 8.1 mph - N/A   Clear
2:55 PM 56.8 °F - 30.4 °F 37% 30.02 in 10.0 mi South 10.4 mph 16.1 mph N/A   Clear
3:15 PM 56.3 °F - 29.1 °F 35% 30.01 in 10.0 mi SSW 11.5 mph 16.1 mph N/A   Clear
3:35 PM 56.1 °F - 29.3 °F 36% 30.00 in 10.0 mi SW 16.1 mph - N/A   Clear
3:55 PM 56.5 °F - 29.8 °F 36% 30.00 in 10.0 mi South 15.0 mph 18.4 mph N/A   Clear
4:15 PM 57.0 °F - 30.6 °F 37% 29.99 in 10.0 mi SSW 15.0 mph 18.4 mph N/A   Clear
4:35 PM 57.0 °F - 30.2 °F 36% 29.98 in 10.0 mi South 12.7 mph 18.4 mph N/A   Clear
4:55 PM 56.8 °F - 30.6 °F 37% 29.98 in 10.0 mi SW 13.8 mph 19.6 mph N/A   Clear
5:15 PM 55.8 °F - 30.4 °F 38% 29.97 in 10.0 mi SSW 11.5 mph - N/A   Clear
5:35 PM 55.2 °F - 30.2 °F 38% 29.97 in 10.0 mi South 12.7 mph - N/A   Scattered Clouds
5:55 PM 54.7 °F - 31.1 °F 41% 29.97 in 10.0 mi SSW 13.8 mph - N/A   Mostly Cloudy
6:15 PM 54.1 °F - 31.6 °F 42% 29.96 in 10.0 mi SSW 9.2 mph - N/A   Scattered Clouds
6:35 PM 53.6 °F - 31.5 °F 43% 29.95 in 10.0 mi South 9.2 mph - N/A   Scattered Clouds
6:55 PM 52.7 °F - 31.3 °F 44% 29.95 in 10.0 mi SSW 9.2 mph - N/A   Scattered Clouds
7:15 PM 51.6 °F - 31.8 °F 47% 29.94 in 10.0 mi South 6.9 mph - N/A   Clear
7:35 PM 50.2 °F - 32.0 °F 50% 29.93 in 10.0 mi South 5.8 mph - N/A   Scattered Clouds
7:55 PM 49.3 °F - 32.0 °F 51% 29.94 in 10.0 mi SSW 4.6 mph - N/A   Scattered Clouds
8:15 PM 48.6 °F - 32.0 °F 53% 29.93 in 10.0 mi SSW 4.6 mph - N/A   Scattered Clouds
8:35 PM 47.3 °F - 32.0 °F 55% 29.93 in 10.0 mi SSW 3.5 mph - N/A   Mostly Cloudy
8:55 PM 47.8 °F - 32.0 °F 54% 29.93 in 10.0 mi South 4.6 mph - N/A   Mostly Cloudy
9:15 PM 46.8 °F - 32.7 °F 58% 29.93 in 10.0 mi SSW 4.6 mph - N/A   Overcast
9:35 PM 46.4 °F 44.3 °F 33.1 °F 60% 29.93 in 10.0 mi SSW 4.6 mph - N/A   Overcast
9:55 PM 46.2 °F 44.1 °F 33.6 °F 61% 29.93 in 10.0 mi SSW 4.6 mph - N/A   Overcast
10:15 PM 45.9 °F 43.6 °F 34.0 °F 63% 29.92 in 10.0 mi South 4.6 mph - N/A   Overcast
10:35 PM 45.7 °F 42.7 °F 34.5 °F 65% 29.92 in 10.0 mi South 5.8 mph - N/A   Overcast
10:55 PM 45.7 °F 42.7 °F 35.4 °F 67% 29.91 in 10.0 mi South 5.8 mph - N/A   Overcast
11:15 PM 45.5 °F 42.5 °F 34.9 °F 66% 29.90 in 10.0 mi South 5.8 mph - N/A   Mostly Cloudy
11:35 PM 45.0 °F 41.8 °F 34.7 °F 67% 29.88 in 10.0 mi South 5.8 mph - N/A   Mostly Cloudy
11:55 PM 44.2 °F 42.7 °F 34.9 °F 70% 29.88 in 10.0 mi South 3.5 mph - N/A   Mostly Cloudy